Estación meteorológica de Boí Taüll (Alta Ribagorça, Parc natural d'Aigüestortes)

Consulta los datos en tiempo real de la estación meteorológica de Boí Taüll





Hora UTC 13:30
Temperatura 23.1 ºC
Humedad 28.0 %
Presión 1020.2 hPa
Pluja 0.0 mm
Velocidad viento 35.4 km/h
Dirección viento NE

Datos diarios 2026-09-06



Hora UTC (invierno +1h; verano +2h)
Temperatura (ºC) Humedad (%) Presión (hPa) Velocidad viento (km/h) Precipitación (mm)
Hora UTC Aire Humedad Presión Vel. Dir. Vel. Max Dir. Intent. máx 5 min.
00:15 16.9 51.0 1020.6 37.0 37.0 0.0
00:30 16.7 52.0 1020.6 37.0 NE 37.0 NE 0.0
00:45 16.4 53.0 1020.6 37.0 37.0 SSW 0.0
01:00 15.9 54.0 1020.6 37.0 NE 37.0 NE 0.0
01:15 15.9 55.0 1020.5 37.0 37.0 SW 0.0
01:30 15.8 55.0 1020.7 37.0 NE 37.0 NE 0.0
01:45 15.8 55.0 1020.7 37.0 37.0 SW 0.0
02:00 16.4 54.0 1020.7 37.0 NE 37.0 NE 0.0
02:15 16.4 55.0 1020.8 37.0 37.0 SW 0.0
02:30 15.9 57.0 1020.6 37.0 NE 37.0 NE 0.0
02:45 15.9 56.0 1020.5 37.0 37.0 SW 0.0
03:00 16.1 56.0 1020.5 37.0 NE 37.0 NE 0.0
03:15 16.2 55.0 1020.4 37.0 37.0 SW 0.0
03:30 16.4 53.0 1020.3 37.0 NE 37.0 NE 0.0
03:45 15.9 56.0 1020.3 37.0 37.0 SSW 0.0
04:00 16.1 55.0 1020.2 37.0 NE 37.0 NE 0.0
04:15 16.1 55.0 1020.2 37.0 37.0 SSW 0.0
04:30 16.4 53.0 1020.1 37.0 NE 37.0 NE 0.0
04:45 16.4 52.0 1020.2 37.0 37.0 SSW 0.0
05:00 16.2 52.0 1020.1 37.0 NE 37.0 NE 0.0
05:15 15.9 53.0 1019.9 37.0 37.0 SSW 0.0
05:30 16.6 51.0 1019.9 37.0 NE 37.0 NE 0.0
05:45 16.7 48.0 1019.9 37.0 37.0 SW 0.0
06:00 17.1 45.0 1019.7 37.0 NE 37.0 NE 0.0
06:15 17.1 45.0 1019.7 37.0 37.0 SSW 0.0
06:30 17.1 45.0 1019.6 37.0 NE 37.0 NE 0.0
06:45 17.3 44.0 1019.5 12.9 37.0 NE 0.0
07:00 16.9 46.0 1019.6 14.5 NNE 37.0 NE 0.0
07:15 16.8 44.0 1019.7 14.5 37.0 NE 0.0
07:30 16.5 43.0 1019.7 16.1 NNE 37.0 NE 0.0
07:45 16.7 44.0 1019.9 16.1 37.0 NE 0.0
08:00 16.8 43.0 1020.0 17.7 NNE 37.0 NE 0.0
08:15 17.3 44.0 1020.1 17.7 37.0 NE 0.0
08:30 17.3 44.0 1020.1 17.7 NNE 37.0 NE 0.0
08:45 17.7 42.0 1020.3 17.7 37.0 NE 0.0
09:00 18.1 42.0 1020.3 17.7 NNE 37.0 NE 0.0
09:15 17.9 43.0 1020.3 17.7 37.0 NE 0.0
09:30 18.2 39.0 1020.3 17.7 NNE 37.0 NE 0.0
09:45 20.3 40.0 1020.2 17.7 37.0 NE 0.0
10:00 21.6 32.0 1020.3 17.7 NNE 37.0 NE 0.0
10:15 22.2 32.0 1020.4 17.7 37.0 NE 0.0
10:30 22.1 32.0 1020.3 17.7 NNE 37.0 NE 0.0
10:45 22.4 31.0 1020.2 19.3 37.0 NE 0.0
11:00 22.6 31.0 1020.2 19.3 NNE 37.0 NE 0.0
11:15 22.4 33.0 1020.1 35.4 37.0 NE 0.0
11:30 22.6 31.0 1020.4 35.4 NE 37.0 NE 0.0
11:45 22.4 31.0 1020.3 35.4 37.0 NE 0.0
12:00 22.3 31.0 1020.2 35.4 NE 37.0 NE 0.0
12:15 23.1 30.0 1020.3 35.4 37.0 NE 0.0
12:30 23.0 30.0 1020.3 35.4 NE 37.0 NE 0.0
12:45 23.4 31.0 1020.0 35.4 37.0 NE 0.0
13:00 23.1 31.0 1019.9 35.4 NE 37.0 NE 0.0
13:15 23.6 30.0 1019.9 35.4 37.0 NE 0.0
13:30 23.1 28.0 1020.2 35.4 NE 37.0 NE 0.0
Máxima 23.6 57.0 1020.8 37.0 NE 37.0 NE 0.0
Mínima 15.8 28.0 1019.5
Total 0.0